Weather History for Dansville, NY

Change the Weather History Date:

Friday, October 19, 2012

  Actual Average Record
Temperature  
Mean Temperature 55 °F -  
Max Temperature 69 °F 57 °F 85 °F (1963)
Min Temperature 42 °F 36 °F 16 °F (1974)
Degree Days  
Heating Degree Days 10    
Growing Degree Days 5 (Base 50)    
Moisture  
Dew Point 49 °F    
Average Humidity 87    
Maximum Humidity 100    
Minimum Humidity 54    
Precipitation  
Precipitation 0.19 in - - ()
Sea Level Pressure  
Sea Level Pressure 29.75 in    
Wind  
Wind Speed 4 mph (SSE)    
Max Wind Speed 8 mph    
Max Gust Speed -    
Visibility 8 miles    
Events Rain    
Averages and records for this station are not official NWS values.
T = Trace of Precipitation, MM = Missing Value Source: NWS Daily Summary

Daily Weather History Graph

Daily Weather History Graph

Search for Another Location

Airport:

Trip Planner

Search our weather history database for the weather conditions in past years. The results will help you decide how hot, cold, wet, or windy it might be!

Date:

Astronomy

Oct. 19, 2012 Rise Set
Actual Time 7:29 AM EDT 6:21 PM EDT
Civil Twilight 7:00 AM EDT 6:50 PM EDT
Nautical Twilight 6:27 AM EDT 7:22 PM EDT
Astronomical Twilight 5:55 AM EDT 7:55 PM EDT
Moon 12:14 PM EDT (10/19) 9:53 PM EDT (10/19)
Length of Visible Light 11h 49m
Length of Day
10h 52m
Waxing Crescent, 23% of the Moon is Illuminated
Oct 19
Waxing Crescent
Oct 21
First Quarter
Oct 29
Full
Nov 6
Last Quarter
Nov 13
New

Hourly Weather History & Observations

Time (EDT) Temp. Windchill Dew Point Humidity Pressure Visibility Wind Dir Wind Speed Gust Speed Precip Events Conditions
12:54 AM 48.9 °F - 48.0 °F 97% 29.92 in 6.0 mi SW 3.5 mph - 0.14 in Rain Rain
1:54 AM 48.9 °F - 46.9 °F 93% 29.86 in 10.0 mi South 5.8 mph - 0.04 in   Partly Cloudy
2:54 AM 46.0 °F 44.8 °F 46.0 °F 100% 29.87 in 10.0 mi SSE 3.5 mph - N/A   Clear
3:44 AM 42.8 °F 40.1 °F 42.8 °F 100% 29.83 in 2.0 mi SE 4.6 mph - N/A   Clear
3:47 AM 44.6 °F 41.4 °F 42.8 °F 93% 29.83 in 3.0 mi SSE 5.8 mph - N/A   Partly Cloudy
3:51 AM 44.6 °F 42.2 °F 42.8 °F 93% 29.83 in 1.8 mi SSE 4.6 mph - N/A   Scattered Clouds
3:54 AM 44.1 °F 41.5 °F 43.0 °F 96% 29.85 in 1.2 mi SSE 4.6 mph - N/A   Scattered Clouds
4:01 AM 44.6 °F 41.4 °F 42.8 °F 93% 29.82 in 1.2 mi SSE 5.8 mph - N/A   Mostly Cloudy
4:13 AM 44.6 °F 42.2 °F 42.8 °F 93% 29.82 in 3.0 mi South 4.6 mph - N/A   Mostly Cloudy
4:54 AM 44.1 °F 42.5 °F 43.0 °F 96% 29.85 in 10.0 mi ESE 3.5 mph - N/A   Clear
5:54 AM 46.0 °F 42.5 °F 45.0 °F 96% 29.84 in 10.0 mi SE 6.9 mph - N/A   Overcast
6:54 AM 48.0 °F - 46.0 °F 93% 29.82 in 10.0 mi Calm Calm - N/A   Partly Cloudy
7:54 AM 46.9 °F - 46.0 °F 97% 29.83 in 10.0 mi SE 5.8 mph - N/A   Mostly Cloudy
8:54 AM 50.0 °F - 48.0 °F 93% 29.80 in 10.0 mi South 5.8 mph - N/A   Partly Cloudy
9:54 AM 55.9 °F - 50.0 °F 80% 29.79 in 10.0 mi Calm Calm - N/A   Scattered Clouds
10:04 AM 55.4 °F - 51.8 °F 88% 29.76 in 10.0 mi Calm Calm - N/A   Mostly Cloudy
10:54 AM 55.0 °F - 52.0 °F 89% 29.78 in 9.0 mi NE 8.1 mph - 0.00 in Rain Light Rain
11:11 AM 57.2 °F - 51.8 °F 82% 29.74 in 10.0 mi SSE 6.9 mph - 0.01 in   Scattered Clouds
11:54 AM 62.1 °F - 54.0 °F 75% 29.75 in 10.0 mi SE 6.9 mph - 0.01 in   Partly Cloudy
12:54 PM 64.0 °F - 51.1 °F 63% 29.73 in 10.0 mi Variable 3.5 mph - N/A   Mostly Cloudy
1:54 PM 66.9 °F - 52.0 °F 59% 29.70 in 10.0 mi Variable 5.8 mph - N/A   Mostly Cloudy
2:54 PM 68.0 °F - 52.0 °F 56% 29.67 in 10.0 mi NE 3.5 mph - N/A   Overcast
3:54 PM 66.0 °F - 48.9 °F 54% 29.66 in 10.0 mi SSE 6.9 mph - N/A   Scattered Clouds
4:54 PM 64.0 °F - 53.1 °F 67% 29.64 in 10.0 mi SE 5.8 mph - N/A   Overcast
5:54 PM 61.0 °F - 53.1 °F 75% 29.64 in 10.0 mi SE 4.6 mph - N/A   Scattered Clouds
6:54 PM 57.0 °F - 52.0 °F 83% 29.65 in 10.0 mi South 3.5 mph - N/A   Clear
7:54 PM 54.0 °F - 51.1 °F 90% 29.65 in 10.0 mi Calm Calm - N/A   Clear
8:54 PM 53.1 °F - 51.1 °F 93% 29.65 in 10.0 mi South 3.5 mph - N/A   Clear
9:54 PM 53.1 °F - 51.1 °F 93% 29.65 in 10.0 mi Calm Calm - N/A   Clear
10:54 PM 51.1 °F - 50.0 °F 96% 29.65 in 10.0 mi Calm Calm - N/A   Overcast
11:29 PM 51.8 °F - 50.0 °F 94% 29.63 in 10.0 mi Calm Calm - N/A   Scattered Clouds
11:38 PM 51.8 °F - 50.0 °F 94% 29.63 in 10.0 mi Calm Calm - N/A   Mostly Cloudy
11:54 PM 51.1 °F - 50.0 °F 96% 29.67 in 10.0 mi Calm Calm - N/A   Overcast